This is the latest recevied weather packets stored in our database for station/object KJ4YLO. If no packets are shown the sender has not sent any weather packets the latest 10 day(s).
| Time | Temp. | Humidity | Pressure | Rain* | Wind** | Luminosity | Snow |
|---|---|---|---|---|---|---|---|
| 1777586161 | 22.78° C | 60% | 1010.3 hPa | 0 mm | - | 187 W/m² | - |
| 1777585859 | 22.78° C | 59% | 1010.3 hPa | 0 mm | - | 173 W/m² | - |
| 1777585559 | 23.33° C | 61% | 1010.6 hPa | 0 mm | - | 163 W/m² | - |
| 1777585255 | 23.33° C | 58% | 1010.6 hPa | 0 mm | - | 181 W/m² | - |
| 1777584949 | 23.33° C | 59% | 1010.3 hPa | 0 mm | - | 182 W/m² | - |
| 1777584647 | 23.33° C | 60% | 1010.3 hPa | 0 mm | - | 238 W/m² | - |
| 1777584344 | 23.33° C | 58% | 1010 hPa | 0 mm | - | 225 W/m² | - |
| 1777584040 | 23.33° C | 59% | 1010.3 hPa | 0 mm | - | 268 W/m² | - |
| 1777583735 | 23.33° C | 57% | 1010.3 hPa | 0 mm | - | 246 W/m² | - |
| 1777583434 | 23.89° C | 59% | 1010.3 hPa | 0 mm | - | 272 W/m² | - |
| 1777583133 | 23.33° C | 57% | 1010.3 hPa | 0 mm | - | 269 W/m² | - |
| 1777582829 | 22.78° C | 58% | 1010.3 hPa | 0 mm | - | 271 W/m² | - |
| 1777582527 | 23.33° C | 57% | 1010.3 hPa | 0 mm | - | 219 W/m² | - |
| 1777582221 | 23.89° C | 55% | 1010.3 hPa | 0 mm | - | 236 W/m² | - |
| 1777581919 | 23.89° C | 55% | 1010.6 hPa | 0 mm | - | 248 W/m² | - |
| 1777581615 | 23.89° C | 55% | 1010.3 hPa | 0 mm | - | 330 W/m² | - |
| 1777581309 | 24.44° C | 55% | 1010.6 hPa | 0 mm | - | 353 W/m² | - |
| 1777581004 | 24.44° C | 54% | 1010.6 hPa | 0 mm | - | 402 W/m² | - |
| 1777580704 | 24.44° C | 57% | 1010.6 hPa | 0 mm | - | 348 W/m² | - |
| 1777580400 | 23.89° C | 54% | 1010.6 hPa | 0 mm | - | 309 W/m² | - |
| 1777580096 | 23.33° C | 55% | 1010.6 hPa | 0 mm | - | 379 W/m² | - |
| 1777579793 | 23.33° C | 58% | 1011 hPa | 0 mm | - | 455 W/m² | - |
| 1777579490 | 22.78° C | 58% | 1011 hPa | 0 mm | - | 447 W/m² | - |
| 1777579185 | 22.78° C | 57% | 1011 hPa | 0 mm | - | 412 W/m² | - |
| 1777578880 | 22.78° C | 57% | 1011 hPa | 0 mm | - | 420 W/m² | - |
* Rain latest hour (hover to see other rain measurements)
** Current wind speed in m/s (hover to see current wind gust speed)